Tracking 25964 objects as of 12-Aug-2022
HD Live streaming from Space Station
objects crossing your sky now

ONEWEB-0068

Track ONEWEB-0068 now!
10-day predictions
ONEWEB-0068 is classified as:


NORAD ID: 45446
Int'l Code: 2020-020Y
Perigee: 1,223.0 km
Apogee: 1,226.7 km
Inclination: 87.9 °
Period: 109.8 minutes
Semi major axis: 7595 km
RCS: Unknown
Launch date: March 21, 2020
Source: United Kingdom (UK)
Launch site: TYURATAM MISSILE AND SPACE COMPLEX (TTMTR)
aabbcc
Your satellite tracking list
Your tracking list is empty




NASA's NSSDC Master Catalog

Two Line Element Set (TLE):
1 45446U 20020Y   22223.14926344 -.00000018  00000-0 -85904-4 0  9992
2 45446  87.8853 300.5708 0002458  96.7312 263.4095 13.11414230118317
Source of the keplerian elements: AFSPC